Simultaneous Nadir Overpasses (SNOs) Predictions

Prediction of SNOs between GOES-16 and NOAA-20 Satellite Orbit:

Table of predicted SNOs for the next 14.0 days since TLE Epoch: 3/18/2023
Index Date Time (GOES-16) GOES-16 Lat,Lon NOAA-20 Lat,Lon Distance(km) Time Diff (sec)
1 03/18/2023 18:17:08 0.07, -75.21 0.63, -72.72 284.09 80
2 03/20/2023 06:38:57 -0.06, -75.21 0.56, -77.98 315.63 80
3 03/21/2023 06:17:32 -0.06, -75.22 -0.44, -73.45 201.77 80
4 03/22/2023 18:42:09 0.06, -75.25 -0.71, -78.76 399.93 80
5 03/23/2023 18:20:45 0.06, -75.26 0.29, -74.23 118.00 80
6 03/25/2023 06:45:13 -0.06, -75.28 0.88, -79.50 480.28 80
7 03/26/2023 06:23:49 -0.06, -75.30 -0.13, -74.96 37.80 80
8 03/28/2023 18:29:41 0.05, -75.34 -0.06, -75.73 44.64 80
9 03/29/2023 18:08:16 0.05, -75.36 0.95, -71.20 474.14 80
10 03/31/2023 06:32:44 -0.04, -75.39 0.21, -76.47 122.85 80
